Regional Weather Roundup
Issued by NWS

Home | Current Version | Previous Version | Graphics & Text | Print | Product List | Glossary On
Versions: 1 2 3 4 5 6 7 8 9 10 11 12 13 14 15 16 17 18 19 20 21 22 23 24 25 26 27 28 29 30 31 32 33 34 35 36 37 38 39 40 41 42 43 44 45 46 47 48 49 50
192
ASUS43 KIND 221209
RWRIN

WEATHER ROUNDUP FOR INDIANA
NATIONAL WEATHER SERVICE INDIANAPOLIS IN
800 AM EDT SAT JUL 22 2017

NOTE: "FAIR" INDICATES FEW OR NO CLOUDS BELOW 12,000 FEET WITH NO
SIGNIFICANT WEATHER AND/OR OBSTRUCTIONS TO VISIBILITY.

* - STATION DOES NOT REPORT WEATHER SUCH AS PRECIPITATION OR FOG.

+ - STATION NOT QUALITY CONTROLLED BY THE NATIONAL WEATHER SERVICE.
    USE DATA WITH CAUTION...ESPECIALLY DEWPOINT AND RELATIVE
    HUMIDITY OBSERVATIONS.

INZ001>003-010>013-019-020-221300-
NORTHWEST INDIANA

CITY           SKY/WX    TMP DP  RH WIND       PRES   REMARKS
GARY /AIRPORT/ LGT RAIN  73  72  94 SW12      29.81F
KNOX *+        CLOUDY    70  70 100 SW9       29.83S
LA PORTE +     RAIN      71  70  97 SW15G22   29.81R
6HR MIN TEMP:  70; 6HR MAX TEMP:  71; 6HR PCP:  0.31;

MICHIGAN CITY+ RAIN      72  72 100 SW14      29.79S
MONTICELLO +   CLOUDY    72  70  95 NW6       29.87R
6HR MIN TEMP:  71; 6HR MAX TEMP:  74; 6HR PCP:  0.44;

RENSSELAER +   DRIZZLE   70  68  94 SW5       29.86S
VALPARAISO     LGT RAIN  73  71  93 SW13      29.83F
6HR MIN TEMP:  72; 6HR MAX TEMP:  73; 6HR PCP:  0.21;


$$

LMZ046-743>745-221300-
SOUTHERN LAKE MICHIGAN

STATION/POSITION TIME  TEMP    WIND        PRES    WAVE
                       AIR SEA DIR/SP/G            HT
                 (UTC) (F)     (DEG/KT/KT) (MB)    (FT)
BURNS HARBOR     1140   73     210/ 17/ 21 1009.1S
MICHIGAN CITY    1140   72     190/ 18/ 21   N/A
5NW MICH CITY    1200   73 74  220/ 21/ 27   N/A     4

$$

INZ004-005-014>016-021>024-221300-
NORTH CENTRAL INDIANA

CITY           SKY/WX    TMP DP  RH WIND       PRES   REMARKS
ELKHART        CLOUDY    72  70  94 CALM      29.83
GOSHEN         CLOUDY    72  69  90 S18G24    29.79F
6HR MIN TEMP:  71; 6HR MAX TEMP:  73; 6HR PCP:  0.37;

LOGANSPORT +   CLOUDY    72  70  94 NW8G16    29.87R
PERU/GRISSOM   PTSUNNY   74  74 100 N12       29.85R
6HR MIN TEMP:  71; 6HR MAX TEMP:  75; 6HR PCP:  1.13;

ROCHESTER +    CLOUDY   N/A N/A N/A S3        29.85F
SOUTH BEND     CLOUDY    71  71 100 S14       29.80R
6HR MIN TEMP:  71; 6HR MAX TEMP:  72; 6HR PCP:  0.35;

WARSAW +       LGT RAIN  70  70 100 SW8       29.83R

$$

INZ006>009-017-018-025>027-221300-
NORTHEAST INDIANA

CITY           SKY/WX    TMP DP  RH WIND       PRES   REMARKS
AUBURN +       CLOUDY    70  68  94 CALM      29.83F
FORT WAYNE     TSTM      71  69  93 S8        29.84F
6HR MIN TEMP:  70; 6HR MAX TEMP:  75; 6HR PCP:  0.74;

HUNTINGTON +   CLOUDY    70  69  96 N5        29.85R THUNDER
6HR MIN TEMP:  69; 6HR MAX TEMP:  74; 6HR PCP:  0.73;

KENDALLVILLE + CLOUDY    69  69 100 SE6       29.84S

$$

INZ028-029-035-036-043>045-051>053-221300-
WEST CENTRAL INDIANA

CITY           SKY/WX    TMP DP  RH WIND       PRES   REMARKS
GREENCASTLE +  MOSUNNY   72  70  94 SE3       29.89S
LAFAYETTE      CLOUDY    72  72 100 NW8       29.86R
6HR MIN TEMP:  71; 6HR MAX TEMP:  78; 6HR PCP:  1.06;

TERRE HAUTE    CLOUDY    78  75  90 S7        29.87S
6HR MIN TEMP:  76; 6HR MAX TEMP:  80;


$$

INZ030>032-037>040-046>048-054>057-064-065-221300-
CENTRAL INDIANA

CITY           SKY/WX    TMP DP  RH WIND       PRES   REMARKS
CP ATTERBURY + CLOUDY    75  70  83 CALM      29.90F
COLUMBUS       PTSUNNY   75  72  88 SE3       29.90F
FRANKFORT +    CLOUDY    74  73  94 SW3       29.88R
6HR MIN TEMP:  73; 6HR MAX TEMP:  80; 6HR PCP:  1.63;

GREENWOOD *+   CLOUDY    75  68  79 S3        29.89F
INDIANAPOLIS   CLOUDY    75  70  84 S7        29.88S
6HR MIN TEMP:  74; 6HR MAX TEMP:  78; 6HR PCP:  0.01;

-EAGLE CREEK   CLOUDY    75  70  84 S6        29.87F
6HR MIN TEMP:  74; 6HR MAX TEMP:  78; 6HR PCP: TRACE;

KOKOMO +       CLOUDY    74  72  93 SW6       29.85R
6HR MIN TEMP:  71; 6HR MAX TEMP:  76; 6HR PCP:  0.79;

MARION +       CLOUDY    72  72 100 SW6       29.84F
MT COMFORT *+  CLOUDY    72  70  94 S6        29.89F
SHELBYVILLE    PTSUNNY   75  69  81 S3        29.88F
6HR MIN TEMP:  74; 6HR MAX TEMP:  80;

ZIONSVILLE +   CLOUDY    72  70  95 S8        29.88F
6HR MIN TEMP:  71; 6HR MAX TEMP:  76; 6HR PCP:  0.05;


$$

INZ033-034-041-042-049-050-058-059-221300-
EAST CENTRAL INDIANA

CITY           SKY/WX    TMP DP  RH WIND       PRES   REMARKS
MUNCIE         PTSUNNY   75  71  87 S5        29.86S
6HR MIN TEMP:  72; 6HR MAX TEMP:  79; 6HR PCP:  0.64;

RICHMOND +     LGT RAIN  70  70 100 S6        29.92S

$$

INZ060-061-067>069-081>083-085>088-221300-
SOUTHWEST INDIANA

CITY           SKY/WX    TMP DP  RH WIND       PRES   REMARKS
EVANSVILLE     SUNNY     80  74  81 SW7       29.91R
6HR MIN TEMP:  78; 6HR MAX TEMP:  84;

HUNTINGBURG *+ SUNNY     78  75  90 CALM      29.93R
6HR MIN TEMP:  78; 6HR MAX TEMP:  81;


$$

INZ062-063-066-070>080-084-089>092-221300-
SOUTH CENTRAL AND SOUTHEAST INDIANA

CITY           SKY/WX    TMP DP  RH WIND       PRES   REMARKS
BEDFORD +      CLOUDY    79  73  83 S3        29.90F
BLOOMINGTON    CLOUDY    79  74  84 CALM      29.90S
6HR MIN TEMP:  78; 6HR MAX TEMP:  82;

MADISON *+     PTSUNNY   79  73  83 S3        29.94S
NORTH VERNON + CLOUDY    77  75  94 CALM      29.93S FOG
SEYMOUR +      CLOUDY    81  77  89 NE3       29.91R

$$





USA.gov is the U.S. government's official web portal to all federal, state and local government web resources and services.